Location: Les Jeannots
(43.2262°N, 5.5774°E)
Time: 17:44:27
(UTC+00:00)

Thor Agena Rocket - Pass Details

Date: 05 July 2020
Orbit: 759 x 808 km, 99.0° (Epoch: 12 August)

Event Time Altitude Azimuth Distance (km) Brightness Sun altitude
Rises 22:24:33 0° 14° (NNE) 3,263 7.7 -21.7°
Reaches altitude 10° 22:26:53 10° 15° (NNE) 2,325 6.8 -21.9°
Maximum altitude 22:32:01 85° 105° (ESE) 774 3.4 -22.1°
Enters shadow 22:33:19 51° 188° (S) 954 3.6 -22.2°
